CW9119 Weather Reports


time (UTC)temp
C
wind
direction
speed
KPH
gust
KPH
rain 1hr
cm
rain 24hr
cm
rain mn
cm
humidity
%
barometer
mb
20260507032109 10 113 0.0 0.0 0.15 0.86 0.61 94 1005.9
20260507031109 10 112 0.0 0.0 0.10 0.81 0.56 94 1005.9
20260507030109 10 112 0.0 0.0 0.08 0.79 0.53 94 1006.0
20260507025109 10 112 0.0 0.0 0.05 0.79 0.51 94 1006.0
20260507024109 10 112 0.0 0.0 0.03 0.74 0.48 94 1006.0
20260507023109 10 112 0.0 0.0 0.00 0.71 0.46 94 1005.8
20260507021109 10 112 0.0 0.0 0.00 0.71 0.46 94 1005.9
20260507011112 11 112 0.0 0.0 0.00 0.71 0.46 94 1005.6
20260507010112 11 111 0.0 1.6 0.00 0.71 0.46 94 1005.4
20260507004112 11 111 3.2 9.7 0.03 0.76 0.46 94 1005.3
20260507003112 11 107 1.6 9.7 0.03 0.76 0.46 94 1005.1
20260507002112 11 107 0.0 8.0 0.03 0.76 0.46 93 1005.1
20260507000112 11 107 0.0 0.0 0.15 0.76 0.46 93 1004.6
20260506235111 11 107 1.6 11.3 0.18 1.12 0.46 93 1004.2
20260506234111 11 93 0.0 3.2 0.23 1.09 0.43 93 1004.3
20260506233111 11 93 1.6 11.3 0.33 1.09 0.43 93 1004.4
20260506232111 11 140 1.6 8.0 0.38 1.09 0.43 93 1004.4
20260506230111 11 144 0.0 0.0 0.33 0.99 0.33 93 1005.2
20260506225111 11 144 0.0 0.0 0.28 1.12 0.28 93 1005.3
20260506223111 11 144 0.0 0.0 0.13 0.97 0.13 92 1005.3
20260506222111 11 144 0.0 0.0 0.05 0.89 0.05 92 1005.3
20260506215111 11 131 0.0 1.6 0.05 0.86 0.86 91 1004.2
20260506214111 11 132 0.0 9.7 0.13 0.86 0.86 91 1004.0
20260506210110 12 130 0.0 8.0 0.18 0.84 0.84 90 1004.0
20260506204110 12 130 1.6 9.7 0.08 0.74 0.74 90 1004.2
20260506203110 11 171 3.2 11.3 0.03 0.69 0.69 90 1004.2
20260506201110 11 137 0.0 0.0 0.00 0.66 0.66 90 1004.0
20260506193110 12 137 0.0 0.0 0.00 0.69 0.66 87 1003.6
20260506191110 12 137 0.0 0.0 0.00 0.69 0.66 86 1003.4
20260506190113 12 137 0.0 1.6 0.00 0.69 0.66 85 1003.4
20260506185113 12 137 0.0 0.0 0.00 0.76 0.66 85 1003.1
20260506182113 13 137 3.2 12.9 0.05 0.76 0.66 83 1003.6
20260506181113 13 84 1.6 6.4 0.05 0.76 0.66 82 1003.6
20260506175113 15 160 4.8 20.9 0.05 0.76 0.66 77 1003.7
20260506171112 17 209 0.0 0.0 0.00 0.71 0.61 63 1003.5
20260506165112 17 209 0.0 0.0 0.00 0.71 0.61 59 1003.8
20260506162112 18 209 0.0 0.0 0.00 0.71 0.61 57 1003.6
20260506161112 18 209 0.0 0.0 0.00 0.71 0.61 57 1003.5
20260506160112 18 209 1.6 8.0 0.00 0.71 0.61 56 1003.7
20260506153112 18 234 1.6 9.7 0.00 0.71 0.61 56 1003.9
20260506150112 18 36 3.2 11.3 0.00 0.71 0.61 59 1004.1
20260506145112 18 173 3.2 17.7 0.00 0.71 0.61 57 1004.1
20260506144111 18 248 0.0 8.0 0.00 0.71 0.61 57 1004.1
20260506142112 18 196 1.6 9.7 0.00 0.71 0.61 58 1004.5
20260506133111 18 156 3.2 16.1 0.00 0.71 0.61 61 1004.9
20260506132111 18 210 1.6 11.3 0.00 0.71 0.61 61 1004.8
20260506130111 17 163 0.0 8.0 0.00 0.71 0.61 68 1004.9
20260506125111 17 161 0.0 9.7 0.00 0.71 0.61 68 1005.1
20260506124111 17 174 3.2 12.9 0.00 0.71 0.61 68 1005.0
20260506122110 17 162 1.6 9.7 0.00 0.71 0.61 69 1005.1
20260506121110 16 170 4.8 19.3 0.00 0.71 0.61 70 1005.2
20260506115110 16 165 1.6 12.9 0.03 0.71 0.61 73 1005.2
20260506114110 15 153 9.7 22.5 0.03 0.71 0.61 73 1005.1
20260506112110 15 159 6.4 16.1 0.03 0.71 0.61 73 1005.2
20260506111110 16 165 1.6 9.7 0.03 0.71 0.61 74 1005.2
20260506110110 16 159 3.2 12.9 0.00 0.71 0.61 74 1005.5
20260506104110 16 155 1.6 16.1 0.00 0.71 0.61 78 1005.3
20260506103110 15 147 1.6 9.7 0.00 0.71 0.61 81 1005.1
20260506102110 15 153 3.2 19.3 0.00 0.71 0.61 80 1005.1
20260506101109 14 170 4.8 11.3 0.00 0.71 0.61 81 1004.9
20260506095113 15 153 3.2 17.7 0.00 0.71 0.61 80 1005.0
20260506093113 14 160 4.8 17.7 0.00 0.71 0.61 82 1004.9
20260506085113 13 155 6.4 19.3 0.00 0.71 0.61 85 1004.6
20260506083113 13 155 0.0 3.2 0.00 0.71 0.61 86 1004.4
20260506082113 13 142 0.0 8.0 0.00 0.71 0.61 88 1004.5
20260506081112 12 154 1.6 9.7 0.00 0.71 0.61 88 1004.3
20260506080112 12 153 0.0 8.0 0.00 0.71 0.61 89 1004.2
20260506073112 12 155 0.0 9.7 0.00 0.71 0.61 90 1004.3
20260506072112 12 152 1.6 11.3 0.00 0.71 0.61 92 1004.3
20260506062112 10 242 1.6 9.7 0.00 0.71 0.61 94 1004.1
20260506061111 10 278 0.0 0.0 0.00 0.71 0.61 94 1004.2
20260506060111 10 251 1.6 6.4 0.00 0.71 0.61 94 1004.2
20260506051111 10 329 0.0 0.0 0.00 0.71 0.61 94 1004.0
20260506050111 10 329 0.0 8.0 0.00 0.71 0.61 94 1003.8
20260506044111 10 329 0.0 0.0 0.00 0.71 0.61 94 1003.7